[[{"header":{"parameterUnit":"m.s-1","parameterCategory":1,"la1":30.2991,"la2":30.254,"lo1":-89.0895,"lo2":-89.0444,"dy":0.0017,"dx":0.0017,"nx":28,"ny":28,"refTime":"2024-02-08T03:00:00:Z","depth":0,"parameterNumber":2,"parameterNumberName":"U-component_of_WINDS"},"data":[0,0,0,0,0,0,0,0,0,0,0,0,0,0,0,0,0,0,0,0,0,0,0,0,0,0,0,0,0,0,0,0,0,0,0,0,0,0,0,0,0,0,0,0,0,0,0,0,0,0,0,0,0,0,0,0,0,0,-4.332,-4.332,0,-4.3308,-4.3307,-4.3307,-4.3244,-4.3243,-4.3241,-4.324,-4.3229,-4.323,-4.3231,0,0,0,0,0,0,0,0,0,0,0,0,0,-4.329,-4.3291,-4.332,-4.332,-4.3319,-4.3308,-4.3307,-4.3307,-4.3245,-4.3243,-4.3241,-4.3239,-4.3228,-4.323,-4.3231,0,0,0,0,0,0,0,0,0,0,0,0,0,-4.3293,-4.3291,-4.332,-4.3287,-4.3284,-4.3308,-4.3307,-4.3307,-4.3245,-4.3243,-4.3241,-4.3238,-4.3228,-4.3229,-4.3231,-4.3286,0,0,-4.3236,-4.3237,0,0,0,0,0,0,0,0,-4.3293,-4.3294,-4.3292,-4.3289,-4.3286,-4.3275,-4.3293,-4.33,-4.3246,-4.326,-4.324,-4.3237,-4.3246,-4.3246,-4.3249,-4.3286,-4.3285,-4.3236,-4.3237,-4.3238,-4.3238,0,0,0,0,0,0,0,-4.3293,-4.3294,-4.3315,-4.3292,-4.3288,-4.3273,-4.3271,-4.3294,-4.3266,-4.3258,-4.3254,-4.3253,-4.3244,-4.3247,-4.3248,-4.3285,-4.3236,-4.3238,-4.3239,-4.3239,-4.3366,-4.3368,0,0,0,0,0,0,-4.3297,-4.3295,-4.3315,-4.3315,-4.3284,-4.3275,-4.3273,-4.3281,-4.3265,-4.3261,-4.3255,-4.325,-4.3246,-4.3246,-4.3247,-4.3309,-4.3238,-4.3239,-4.324,-4.3363,-4.3366,-4.3369,0,0,0,0,0,0,-4.3297,-4.33,-4.3316,-4.3303,-4.3304,-4.3278,-4.3288,-4.3282,-4.3285,-4.3263,-4.3257,-4.3263,-4.3244,-4.3245,-4.3277,-4.3308,-4.324,-4.3242,-4.3361,-4.3364,-4.3368,-4.3435,0,0,0,0,0,0,-4.3296,-4.33,-4.332,-4.3304,-4.3305,-4.3345,-4.3289,-4.3283,-4.3288,-4.3281,-4.3269,-4.3265,-4.3242,-4.3275,-4.3278,-4.3309,-4.3243,-4.3358,-4.3362,-4.3366,-4.343,-4.3441,-4.345,0,0,0,0,0,-4.3295,-4.334,-4.3321,-4.3324,-4.333,-4.3347,-4.3348,-4.332,-4.3291,-4.3311,-4.3297,-4.3265,-4.3305,-4.3278,-4.3282,-4.3314,-4.3355,-4.3361,-4.3366,-4.3425,-4.3438,-4.3449,0,0,0,0,0,0,-4.336,-4.3337,-4.3316,-4.3357,-4.3355,-4.3336,-4.3361,-4.3335,-4.334,-4.3334,-4.33,-4.3298,-4.3334,-4.3328,-4.3299,-4.3366,-4.3325,-4.3331,-4.3369,-4.3381,-4.3391,-4.339,-4.3244,0,0,0,0,0,-4.338,-4.3395,-4.3374,-4.3412,-4.3412,-4.3387,-4.3393,-4.3372,-4.3368,-4.3367,-4.3355,-4.3353,-4.3364,-4.3373,-4.3382,-4.343,-4.3425,-4.3454,-4.3463,-4.3472,-4.3477,-4.35,-4.3512,-4.3386,-4.3386,-4.3386,0,0,-4.3419,-4.3408,-4.342,-4.3425,-4.342,-4.3437,-4.3386,-4.3407,-4.3418,-4.337,-4.3398,-4.339,-4.3385,-4.3425,-4.3442,-4.342,-4.3511,-4.3479,-4.3485,-4.3486,-4.3507,-4.3519,-4.353,-4.339,-4.3389,-4.3389,0,0,-4.3499,-4.3493,-4.3523,-4.352,-4.3514,-4.3497,-4.3505,-4.3491,-4.3483,-4.3511,-4.3475,-4.3489,-4.3511,-4.3508,-4.351,-4.359,-4.3561,-4.3595,-4.3645,-4.3669,-4.3679,-4.3687,-4.3714,-4.3724,-4.36,-4.3601,-4.3601,0,-4.3549,-4.3572,-4.3543,-4.3565,-4.3568,-4.3525,-4.3555,-4.3554,-4.3551,-4.3555,-4.3531,-4.3556,-4.355,-4.3588,-4.3608,-4.3611,-4.3618,-4.3595,-4.368,-4.3688,-4.3695,-4.3721,-4.3731,-4.3605,-4.3604,-4.3604,-4.3603,0,-4.3633,-4.365,-4.3675,-4.3673,-4.3679,-4.3706,-4.3681,-4.3691,-4.367,-4.3656,-4.3685,-4.3677,-4.3683,-4.3691,-4.3672,-4.3726,-4.3713,-4.3686,-4.3643,-4.3712,-4.3735,-4.3745,-4.361,-4.3609,-4.3608,-4.3607,0,0,-4.3751,-4.3733,-4.3743,-4.3741,-4.3731,-4.3744,-4.3769,-4.3775,-4.3784,-4.3785,-4.3804,-4.3823,-4.3797,-4.3799,-4.3779,-4.38,-4.3862,-4.3769,-4.3769,-4.3785,-4.3921,-4.394,-4.3952,-4.3844,-4.3846,-4.3848,-4.3921,0,-4.3826,-4.3866,-4.3841,-4.3885,-4.39,-4.386,-4.3882,-4.3879,-4.3867,-4.3878,-4.3865,-4.3879,-4.3844,-4.3845,-4.3864,-4.3851,-4.3889,-4.3846,-4.3861,-4.3862,-4.3861,-4.3964,-4.3985,-4.4054,-4.393,-4.3931,-4.3932,0,-4.3918,-4.3922,-4.3967,-4.3954,-4.396,-4.3979,-4.3983,-4.3994,-4.399,-4.398,-4.3983,-4.3958,-4.3981,-4.3941,-4.3973,-4.3944,-4.395,-4.3944,-4.3946,-4.3944,-4.39,-4.3963,-4.4075,-4.4085,-4.3947,-4.3946,-4.3945,0,-4.3997,-4.4014,-4.4043,-4.4043,-4.4029,-4.4044,-4.4039,-4.4033,-4.4038,-4.4042,-4.4045,-4.4052,-4.4055,-4.4061,-4.4039,-4.4012,-4.4073,-4.4031,-4.4064,-4.4065,-4.4077,-4.4076,-4.4189,-4.4085,-4.4085,-4.4084,-4.4084,0,-4.4082,-4.4111,-4.4078,-4.4096,-4.4127,-4.4099,-4.4131,-4.4122,-4.4117,-4.4132,-4.4099,-4.4115,-4.4085,-4.4097,-4.408,-4.4108,-4.4111,-4.4103,-4.4097,-4.4104,-4.4105,-4.4105,-4.4099,-4.4087,-4.4087,-4.4086,-4.4086,0,-4.4175,-4.4154,-4.4183,-4.4168,-4.4165,-4.4188,-4.4175,-4.4191,-4.4178,-4.4198,-4.4201,-4.4179,-4.4192,-4.4171,-4.4182,-4.417,-4.4209,-4.4197,-4.421,-4.4205,-4.4239,-4.4235,-4.4354,-4.4368,-4.4257,-4.4258,-4.4259,0,-4.4229,-4.425,-4.4237,-4.4245,-4.4242,-4.4255,-4.426,-4.4233,-4.424,-4.4237,-4.4253,-4.4264,-4.427,-4.4292,-4.4278,-4.4286,-4.4273,-4.4314,-4.4274,-4.428,-4.4271,-4.4269,-4.427,-4.4322,-4.4323,-4.4324,-4.4325,0,-4.4327,-4.4315,-4.4324,-4.4329,-4.4336,-4.4339,-4.4339,-4.4347,-4.4319,-4.4329,-4.4341,-4.4346,-4.4357,-4.4367,-4.4372,-4.4367,-4.4341,-4.4339,-4.4346,-4.4352,-4.4357,-4.4353,-4.423,-4.4335,-4.4334,-4.4333,-4.4333,-4.4332,-4.44,-4.4416,-4.441,-4.442,-4.4418,-4.4419,-4.4433,-4.4421,-4.4431,-4.4437,-4.4421,-4.4437,-4.4433,-4.4436,-4.4435,-4.4447,-4.4429,-4.4441,-4.4443,-4.4446,-4.445,-4.4358,-4.4448,-4.4448,-4.4448,-4.4447,-4.4447,0,-4.4494,-4.4488,-4.4498,-4.4499,-4.4508,-4.4483,-4.4483,-4.4491,-4.4506,-4.4504,-4.4511,-4.4525,-4.4535,-4.4522,-4.453,-4.4542,-4.453,-4.4545,-4.4542,-4.4541,-4.4467,-4.4458,-4.4554,-4.4554,-4.4554,-4.4554,-4.4554,-4.4554,-4.4544,-4.457,-4.4558,-4.4583,-4.4577,-4.4592,-4.4593,-4.4595,-4.4593,-4.461,-4.4618,-4.4609,-4.4603,-4.461,-4.4618,-4.4614,-4.4617,-4.4635,-4.4627,-4.4557,-4.4547,-4.4537,-4.4528,-4.4637,-4.4637,-4.47,-4.4701,-4.4701]},{"header":{"parameterUnit":"m.s-1","parameterCategory":1,"la1":30.2991,"la2":30.254,"lo1":-89.0895,"lo2":-89.0444,"dy":0.0017,"dx":0.0017,"nx":28,"ny":28,"refTime":"2024-02-08T03:00:00:Z","depth":0,"parameterNumber":3,"parameterNumberName":"V-component_of_WINDS"},"data":[0,0,0,0,0,0,0,0,0,0,0,0,0,0,0,0,0,0,0,0,0,0,0,0,0,0,0,0,0,0,0,0,0,0,0,0,0,0,0,0,0,0,0,0,0,0,0,0,0,0,0,0,0,0,0,0,0,0,2.9137,2.9138,0,2.9171,2.9171,2.9171,2.9163,2.9162,2.9162,2.9161,2.9193,2.9195,2.9196,0,0,0,0,0,0,0,0,0,0,0,0,0,2.9067,2.9068,2.9137,2.9138,2.9138,2.9171,2.9171,2.9172,2.9163,2.9162,2.9161,2.9161,2.9193,2.9195,2.9196,0,0,0,0,0,0,0,0,0,0,0,0,0,2.9099,2.9069,2.9137,2.9138,2.9138,2.9171,2.9171,2.9172,2.9163,2.9162,2.9161,2.916,2.9192,2.9194,2.9197,2.923,0,0,2.9203,2.9204,0,0,0,0,0,0,0,0,2.9097,2.9101,2.9137,2.9138,2.9138,2.9162,2.9158,2.9191,2.9163,2.9154,2.9161,2.916,2.9184,2.9186,2.9195,2.9231,2.9233,2.9204,2.9205,2.9206,2.9206,0,0,0,0,0,0,0,2.9095,2.91,2.915,2.9138,2.9139,2.9137,2.914,2.9164,2.9174,2.9154,2.9154,2.9158,2.9184,2.9193,2.9195,2.9233,2.9204,2.9205,2.9207,2.9208,2.9302,2.9303,0,0,0,0,0,0,2.9092,2.9098,2.9149,2.9151,2.9115,2.9139,2.9143,2.9155,2.9173,2.9175,2.9159,2.9158,2.9189,2.9193,2.9197,2.9239,2.9206,2.9208,2.9209,2.9301,2.9302,2.9304,0,0,0,0,0,0,2.9091,2.9097,2.9148,2.9125,2.9131,2.9141,2.9155,2.9156,2.9165,2.9177,2.9178,2.9166,2.9189,2.9193,2.9223,2.924,2.9209,2.9211,2.93,2.9301,2.9303,2.9323,0,0,0,0,0,0,2.9089,2.9096,2.9109,2.9125,2.9132,2.9173,2.9156,2.9158,2.9169,2.9168,2.9184,2.9186,2.9188,2.9219,2.9225,2.9242,2.9213,2.9298,2.93,2.9302,2.9321,2.9325,2.9329,0,0,0,0,0,2.9086,2.9112,2.9109,2.9116,2.9148,2.9174,2.9179,2.9181,2.9171,2.9184,2.9192,2.9185,2.9237,2.9222,2.9228,2.9247,2.9297,2.93,2.9302,2.9319,2.9324,2.9329,0,0,0,0,0,0,2.9096,2.9114,2.9111,2.9143,2.9158,2.9173,2.9189,2.9186,2.9204,2.9201,2.9204,2.9207,2.9238,2.9245,2.9228,2.9282,2.9265,2.9269,2.9276,2.9281,2.9285,2.9284,2.9214,0,0,0,0,0,2.9102,2.9122,2.9136,2.9163,2.9171,2.9179,2.919,2.9192,2.9206,2.9212,2.9222,2.9236,2.9256,2.9269,2.9287,2.9322,2.9326,2.9338,2.9342,2.9345,2.9349,2.937,2.9376,2.9312,2.9312,2.9312,0,0,2.9114,2.9127,2.9139,2.9166,2.9177,2.9198,2.9184,2.9206,2.9223,2.9215,2.9244,2.9252,2.9268,2.9301,2.9316,2.9308,2.9368,2.9348,2.9351,2.9353,2.9374,2.938,2.9385,2.9314,2.9314,2.9314,0,0,2.9148,2.9159,2.9184,2.9196,2.9214,2.922,2.9226,2.9242,2.9248,2.9277,2.9273,2.9292,2.9325,2.9338,2.9349,2.9391,2.9387,2.9397,2.9418,2.9439,2.9445,2.9449,2.9466,2.9472,2.94,2.94,2.94,0,2.9161,2.9194,2.9196,2.9221,2.9234,2.9229,2.9255,2.9267,2.929,2.9299,2.929,2.9334,2.9344,2.9381,2.9392,2.94,2.9408,2.9395,2.9444,2.9448,2.9452,2.9469,2.9475,2.9401,2.9401,2.9401,2.9401,0,2.921,2.9233,2.9251,2.9275,2.9289,2.9314,2.9322,2.9336,2.9337,2.9344,2.9375,2.9387,2.941,2.9419,2.9418,2.9457,2.9452,2.9443,2.9427,2.946,2.9476,2.9482,2.9403,2.9403,2.9402,2.9402,0,0,2.925,2.9278,2.9284,2.9297,2.9318,2.9335,2.9361,2.9384,2.9397,2.9413,2.9436,2.9466,2.9459,2.9471,2.9472,2.9491,2.9527,2.948,2.9481,2.9491,2.9573,2.9581,2.9588,2.9524,2.9525,2.9526,2.9572,0,2.9288,2.9333,2.9338,2.9379,2.9402,2.9399,2.9422,2.9437,2.9445,2.9465,2.9473,2.9495,2.9483,2.9491,2.9509,2.9518,2.9543,2.9515,2.9546,2.9547,2.9544,2.9596,2.9603,2.9646,2.9578,2.9579,2.958,0,2.9337,2.9358,2.9401,2.9422,2.9432,2.9452,2.9475,2.9494,2.9512,2.9517,2.9532,2.9532,2.9559,2.9541,2.958,2.9561,2.9573,2.958,2.9582,2.9586,2.9566,2.9603,2.966,2.9667,2.9589,2.9588,2.9588,0,2.9366,2.9403,2.9435,2.9445,2.9469,2.9484,2.9495,2.9512,2.9527,2.9547,2.9557,2.9579,2.9592,2.961,2.9616,2.9602,2.9655,2.9637,2.9661,2.9661,2.9673,2.9673,2.9735,2.9678,2.9678,2.9678,2.9678,0,2.9408,2.9436,2.9449,2.9469,2.95,2.9506,2.9537,2.9546,2.9563,2.9585,2.9583,2.9604,2.961,2.9632,2.9637,2.967,2.9675,2.968,2.9681,2.9681,2.9681,2.9691,2.9689,2.968,2.9679,2.9679,2.9679,0,2.9445,2.9455,2.949,2.9511,2.9517,2.954,2.9558,2.9577,2.9585,2.9614,2.9621,2.9633,2.966,2.9668,2.9698,2.9702,2.9741,2.9738,2.9736,2.9736,2.976,2.9759,2.9833,2.9844,2.9778,2.9778,2.9779,0,2.9473,2.9494,2.9518,2.9534,2.9546,2.957,2.9586,2.9593,2.9609,2.9633,2.9651,2.9677,2.9699,2.9741,2.9753,2.9778,2.9777,2.9801,2.9781,2.9781,2.978,2.978,2.9783,2.9805,2.9806,2.9807,2.9807,0,2.9521,2.9526,2.9549,2.9575,2.9594,2.9614,2.9634,2.9646,2.9656,2.9675,2.9703,2.972,2.9753,2.978,2.9806,2.9816,2.9814,2.9814,2.9821,2.9822,2.9821,2.9824,2.9749,2.9812,2.9812,2.9811,2.9811,2.9811,2.9556,2.9576,2.9598,2.9624,2.964,2.9659,2.968,2.9691,2.9715,2.9744,2.9746,2.9777,2.9797,2.9831,2.9844,2.9868,2.9861,2.9871,2.9874,2.9877,2.988,2.9815,2.9872,2.9872,2.9872,2.9872,2.9872,0,2.9607,2.9621,2.9645,2.9674,2.9696,2.9692,2.9714,2.9733,2.976,2.978,2.9802,2.9835,2.9862,2.9877,2.9904,2.9921,2.9921,2.9928,2.9928,2.9931,2.9883,2.9876,2.9928,2.9928,2.9928,2.9928,2.9928,2.9928,2.9636,2.9671,2.9679,2.9723,2.9736,2.9768,2.9781,2.9799,2.9815,2.9853,2.9876,2.9886,2.9904,2.9933,2.9958,2.9961,2.9972,2.9981,2.9984,2.994,2.9934,2.9929,2.9921,2.9983,2.9983,3.003,3.0031,3.0031]}]]